,,PA_Meas_PMT16A,,PR_Meas_QMR101_102,,RH_Meas_QMH101,,SR_Meas_QMS101,,TA_Meas_QMH101,,GenWind,,GenWind,
time,status,PA,status,PR,status,RH,status,SR,status,TA,status,DirAvg,status,SpdAvg,
2013-04-13, 00:00:05,VALID,918.008,VALID,0,VALID,96.0398,VALID,0,VALID,21.3786,VALID,102,VALID,0,
2013-04-13, 00:01:05,VALID,917.979,VALID,0,VALID,96.0474,VALID,0.107441,VALID,21.3786,VALID,102,VALID,0,
2013-04-13, 00:02:05,VALID,917.996,VALID,0,VALID,96.055,VALID,0.107441,VALID,21.3786,VALID,115,VALID,0,
2013-04-13, 00:03:05,VALID,917.935,VALID,0,VALID,96.0322,VALID,0.107441,VALID,21.3786,VALID,115,VALID,0,
2013-04-13, 00:04:05,VALID,917.916,VALID,0,VALID,96.0093,VALID,0.107441,VALID,21.3786,VALID,115,VALID,0,
2013-04-13, 00:05:05,VALID,917.94,VALID,0,VALID,96.0093,VALID,0.107441,VALID,21.3591,VALID,115,VALID,0,
2013-04-13, 00:06:05,VALID,917.91,VALID,0,VALID,96.0169,VALID,0,VALID,21.3591,VALID,115,VALID,0,
2013-04-13, 00:07:05,VALID,917.89,VALID,0,VALID,96.0093,VALID,0.107441,VALID,21.3591,VALID,115,VALID,0,
2013-04-13, 00:08:05,VALID,917.862,VALID,0,VALID,96.0093,VALID,0.107441,VALID,21.3591,VALID,115,VALID,0,
2013-04-13, 00:09:05,VALID,917.833,VALID,0,VALID,96.0627,VALID,0.107441,VALID,21.3591,VALID,115,VALID,0,
2013-04-13, 00:10:05,VALID,917.783,VALID,0,VALID,96.0398,VALID,0.107441,VALID,21.3591,VALID,115,VALID,0,
2013-04-13, 00:11:05,VALID,917.776,VALID,0,VALID,96.0703,VALID,0,VALID,21.3591,VALID,115,VALID,0,
2013-04-13, 00:12:05,VALID,917.732,VALID,0,VALID,96.0932,VALID,0.107441,VALID,21.3591,VALID,115,VALID,0,
2013-04-13, 00:13:05,VALID,917.755,VALID,0,VALID,96.1008,VALID,0,VALID,21.3786,VALID,115,VALID,0,
2013-04-13, 00:14:05,VALID,917.743,VALID,0,VALID,96.116,VALID,0.107441,VALID,21.3786,VALID,115,VALID,0,
2013-04-13, 00:15:05,VALID,917.755,VALID,0,VALID,96.1313,VALID,0,VALID,21.3786,VALID,115,VALID,0,
2013-04-13, 00:16:05,VALID,917.719,VALID,0,VALID,96.1465,VALID,0.107441,VALID,21.3786,VALID,115,VALID,0,
2013-04-13, 00:17:05,VALID,917.724,VALID,0,VALID,96.1236,VALID,0,VALID,21.3591,VALID,115,VALID,0,
2013-04-13, 00:18:05,VALID,917.696,VALID,0,VALID,96.1236,VALID,0,VALID,21.3396,VALID,115,VALID,0,
2013-04-13, 00:19:05,VALID,917.689,VALID,0,VALID,96.1389,VALID,0.107441,VALID,21.3396,VALID,115,VALID,0,
2013-04-13, 00:20:05,VALID,917.638,VALID,0,VALID,96.1541,VALID,0.107441,VALID,21.3396,VALID,115,VALID,0,
2013-04-13, 00:21:05,VALID,917.623,VALID,0,VALID,96.177,VALID,0.107441,VALID,21.3396,VALID,115,VALID,0,
2013-04-13, 00:22:05,VALID,917.583,VALID,0,VALID,96.1618,VALID,0,VALID,21.3608,VALID,115,VALID,0,
2013-04-13, 00:23:05,VALID,917.559,VALID,0,VALID,96.1618,VALID,0.107441,VALID,21.3006,VALID,115,VALID,0,
2013-04-13, 00:24:05,VALID,917.541,VALID,0,VALID,96.1313,VALID,0.107441,VALID,21.2616,VALID,115,VALID,0,
2013-04-13, 00:25:05,VALID,917.554,VALID,0,VALID,96.055,VALID,0.107441,VALID,21.1836,VALID,115,VALID,0,
2013-04-13, 00:26:05,VALID,917.525,VALID,0,VALID,96.055,VALID,0,VALID,21.1445,VALID,115,VALID,0,
2013-04-13, 00:27:05,VALID,917.531,VALID,0,VALID,96.0627,VALID,0,VALID,21.125,VALID,115,VALID,0,
2013-04-13, 00:28:05,VALID,917.51,VALID,0,VALID,96.0779,VALID,0.107441,VALID,21.086,VALID,115,VALID,0,
2013-04-13, 00:29:05,VALID,917.503,VALID,0,VALID,96.0855,VALID,0.107441,VALID,21.047,VALID,115,VALID,0,
2013-04-13, 00:30:05,VALID,917.462,VALID,0,VALID,96.0932,VALID,0.107441,VALID,21.008,VALID,114,VALID,0,
2013-04-13, 00:31:05,VALID,917.451,VALID,0,VALID,96.0932,VALID,0.107441,VALID,20.969,VALID,120,VALID,0,
2013-04-13, 00:32:05,VALID,917.449,VALID,0,VALID,96.1313,VALID,0.107441,VALID,20.9495,VALID,106,VALID,0,
2013-04-13, 00:33:05,VALID,917.472,VALID,0,VALID,96.177,VALID,0.107441,VALID,20.93,VALID,93,VALID,0,
2013-04-13, 00:34:05,VALID,917.471,VALID,0,VALID,96.1999,VALID,0.107441,VALID,20.9105,VALID,118,VALID,0,
2013-04-13, 00:35:05,VALID,917.474,VALID,0,VALID,96.2228,VALID,0,VALID,20.9105,VALID,120,VALID,0,
2013-04-13, 00:36:05,VALID,917.419,VALID,0,VALID,96.2304,VALID,0,VALID,20.891,VALID,120,VALID,0,
2013-04-13, 00:37:05,VALID,917.417,VALID,0,VALID,96.2609,VALID,0,VALID,20.8714,VALID,120,VALID,0,
2013-04-13, 00:38:05,VALID,917.371,VALID,0,VALID,96.238,VALID,0.107441,VALID,20.8519,VALID,120,VALID,0,
2013-04-13, 00:39:05,VALID,917.401,VALID,0,VALID,96.2761,VALID,0.107441,VALID,20.8714,VALID,120,VALID,0,
2013-04-13, 00:40:05,VALID,917.385,VALID,0,VALID,96.3066,VALID,0,VALID,20.8714,VALID,120,VALID,0,
2013-04-13, 00:41:05,VALID,917.385,VALID,0,VALID,96.3295,VALID,0.107441,VALID,20.8714,VALID,120,VALID,0,
2013-04-13, 00:42:05,VALID,917.371,VALID,0,VALID,96.36,VALID,0.107441,VALID,20.9105,VALID,120,VALID,0,
2013-04-13, 00:43:05,VALID,917.347,VALID,0,VALID,96.3524,VALID,0.107441,VALID,20.9495,VALID,120,VALID,0,
2013-04-13, 00:44:05,VALID,917.32,VALID,0,VALID,96.3676,VALID,0.107441,VALID,20.9495,VALID,120,VALID,0,
2013-04-13, 00:45:05,VALID,917.305,VALID,0,VALID,96.3676,VALID,0,VALID,20.93,VALID,120,VALID,0,
2013-04-13, 00:46:05,VALID,917.33,VALID,0,VALID,96.3371,VALID,0,VALID,20.93,VALID,120,VALID,0,
2013-04-13, 00:47:05,VALID,917.302,VALID,0,VALID,96.3295,VALID,0.107441,VALID,20.9105,VALID,120,VALID,0,
2013-04-13, 00:48:05,VALID,917.289,VALID,0,VALID,96.2914,VALID,0,VALID,20.9316,VALID,118,VALID,0,
2013-04-13, 00:49:05,VALID,917.303,VALID,0,VALID,96.2914,VALID,0,VALID,20.891,VALID,117,VALID,0,
2013-04-13, 00:50:05,VALID,917.273,VALID,0,VALID,96.3066,VALID,0,VALID,20.8714,VALID,117,VALID,0,
2013-04-13, 00:51:05,VALID,917.256,VALID,0,VALID,96.3142,VALID,0,VALID,20.8714,VALID,92,VALID,0,
2013-04-13, 00:52:05,VALID,917.242,VALID,0,VALID,96.3219,VALID,0.107441,VALID,20.8324,VALID,92,VALID,0,
2013-04-13, 00:53:05,VALID,917.211,VALID,0,VALID,96.3371,VALID,0,VALID,20.8324,VALID,92,VALID,0,
2013-04-13, 00:54:05,VALID,917.192,VALID,0,VALID,96.36,VALID,0,VALID,20.8324,VALID,92,VALID,0,
2013-04-13, 00:55:05,VALID,917.185,VALID,0,VALID,96.3676,VALID,0,VALID,20.8129,VALID,92,VALID,0,
2013-04-13, 00:56:05,VALID,917.151,VALID,0,VALID,96.3905,VALID,0.107441,VALID,20.8324,VALID,92,VALID,0,
2013-04-13, 00:57:05,VALID,917.141,VALID,0,VALID,96.4057,VALID,0,VALID,20.7934,VALID,93,VALID,0,
2013-04-13, 00:58:05,VALID,917.1,VALID,0,VALID,96.4057,VALID,0,VALID,20.7739,VALID,93,VALID,0,
2013-04-13, 00:59:05,VALID,917.096,VALID,0,VALID,96.4133,VALID,0,VALID,20.7739,VALID,98,VALID,0,
2013-04-13, 01:00:05,VALID,917.064,VALID,0,VALID,96.4362,VALID,0.107441,VALID,20.7544,VALID,108,VALID,0,
2013-04-13, 01:01:05,VALID,917.067,VALID,0,VALID,96.4438,VALID,0,VALID,20.7349,VALID,130,VALID,0,
2013-04-13, 01:02:05,VALID,917.009,VALID,0,VALID,96.4667,VALID,0.107441,VALID,20.7154,VALID,130,VALID,0,
2013-04-13, 01:03:05,VALID,917.026,VALID,0,VALID,96.4819,VALID,0.107441,VALID,20.7154,VALID,130,VALID,0,
2013-04-13, 01:04:05,VALID,916.989,VALID,0,VALID,96.4896,VALID,0.107441,VALID,20.7154,VALID,130,VALID,0,
2013-04-13, 01:05:05,VALID,916.986,VALID,0,VALID,96.5124,VALID,0.107441,VALID,20.6764,VALID,100,VALID,0,
2013-04-13, 01:06:05,VALID,916.965,VALID,0,VALID,96.5201,VALID,0.107441,VALID,20.6569,VALID,108,VALID,0,
2013-04-13, 01:07:05,VALID,916.966,VALID,0,VALID,96.5353,VALID,0,VALID,20.6569,VALID,113,VALID,0,
2013-04-13, 01:08:05,VALID,916.952,VALID,0,VALID,96.5582,VALID,0,VALID,20.6569,VALID,114,VALID,0,
2013-04-13, 01:09:05,VALID,916.944,VALID,0,VALID,96.5658,VALID,0.107441,VALID,20.6569,VALID,117,VALID,0,
2013-04-13, 01:10:05,VALID,916.905,VALID,0,VALID,96.5963,VALID,0.107441,VALID,20.6764,VALID,119,VALID,0,
2013-04-13, 01:11:05,VALID,916.883,VALID,0,VALID,96.6115,VALID,0.107441,VALID,20.6764,VALID,132,VALID,0,
2013-04-13, 01:12:05,VALID,916.867,VALID,0,VALID,96.6039,VALID,0,VALID,20.678,VALID,137,VALID,0,
2013-04-13, 01:13:05,VALID,916.851,VALID,0,VALID,96.6115,VALID,0,VALID,20.6585,VALID,147,VALID,0,
2013-04-13, 01:14:05,VALID,916.849,VALID,0,VALID,96.6268,VALID,0,VALID,20.6585,VALID,136,VALID,0,
2013-04-13, 01:15:05,VALID,916.838,VALID,0,VALID,96.642,VALID,0,VALID,20.6585,VALID,135,VALID,0,
2013-04-13, 01:16:05,VALID,916.827,VALID,0,VALID,96.6268,VALID,0,VALID,20.6194,VALID,135,VALID,0,
2013-04-13, 01:17:05,VALID,916.788,VALID,0,VALID,96.6344,VALID,0,VALID,20.5999,VALID,135,VALID,0,
2013-04-13, 01:18:05,VALID,916.736,VALID,0,VALID,96.6268,VALID,0,VALID,20.5609,VALID,94,VALID,0,
2013-04-13, 01:19:05,VALID,916.693,VALID,0,VALID,96.6192,VALID,0,VALID,20.5219,VALID,99,VALID,0,
2013-04-13, 01:20:05,VALID,916.67,VALID,0,VALID,96.6192,VALID,0,VALID,20.5024,VALID,99,VALID,0,
2013-04-13, 01:21:05,VALID,916.661,VALID,0,VALID,96.6344,VALID,0,VALID,20.4829,VALID,99,VALID,0,
2013-04-13, 01:22:05,VALID,916.695,VALID,0,VALID,96.6649,VALID,0,VALID,20.5024,VALID,101,VALID,0,
2013-04-13, 01:23:05,VALID,916.701,VALID,0,VALID,96.6954,VALID,0,VALID,20.504,VALID,111,VALID,0,
2013-04-13, 01:24:05,VALID,916.728,VALID,0,VALID,96.6802,VALID,0,VALID,20.5235,VALID,115,VALID,0,
2013-04-13, 01:25:05,VALID,916.742,VALID,0,VALID,96.7107,VALID,0,VALID,20.5219,VALID,141,VALID,0,
2013-04-13, 01:26:05,VALID,916.749,VALID,0,VALID,96.7259,VALID,0,VALID,20.5219,VALID,144,VALID,0,
2013-04-13, 01:27:05,VALID,916.762,VALID,0,VALID,96.7488,VALID,0.107441,VALID,20.5399,VALID,160,VALID,0,
2013-04-13, 01:28:05,VALID,916.735,VALID,0,VALID,96.7335,VALID,0,VALID,20.5594,VALID,154,VALID,0,
2013-04-13, 01:29:05,VALID,916.706,VALID,0,VALID,96.764,VALID,0,VALID,20.5609,VALID,136,VALID,0,
2013-04-13, 01:30:05,VALID,916.695,VALID,0,VALID,96.764,VALID,0,VALID,20.5414,VALID,133,VALID,0,
2013-04-13, 01:31:05,VALID,916.683,VALID,0,VALID,96.764,VALID,0,VALID,20.5204,VALID,115,VALID,0,
2013-04-13, 01:32:05,VALID,916.672,VALID,0,VALID,96.764,VALID,0,VALID,20.5204,VALID,116,VALID,0,
2013-04-13, 01:33:05,VALID,916.664,VALID,0,VALID,96.7869,VALID,0,VALID,20.5219,VALID,116,VALID,0,
2013-04-13, 01:34:05,VALID,916.689,VALID,0,VALID,96.7945,VALID,0,VALID,20.5009,VALID,114,VALID,0,
2013-04-13, 01:35:05,VALID,916.668,VALID,0,VALID,96.8021,VALID,0.107441,VALID,20.5009,VALID,114,VALID,0,
2013-04-13, 01:36:05,VALID,916.639,VALID,0,VALID,96.7945,VALID,0,VALID,20.5024,VALID,134,VALID,0,
2013-04-13, 01:37:05,VALID,916.644,VALID,0,VALID,96.8098,VALID,0,VALID,20.5219,VALID,134,VALID,0,
2013-04-13, 01:38:05,VALID,916.615,VALID,0,VALID,96.825,VALID,0,VALID,20.5024,VALID,134,VALID,0,
2013-04-13, 01:39:05,VALID,916.597,VALID,0,VALID,96.8174,VALID,0,VALID,20.5219,VALID,134,VALID,0,
2013-04-13, 01:40:05,VALID,916.58,VALID,0,VALID,96.8326,VALID,0,VALID,20.5204,VALID,134,VALID,0,
2013-04-13, 01:41:05,VALID,916.58,VALID,0,VALID,96.825,VALID,0,VALID,20.5024,VALID,134,VALID,0,
2013-04-13, 01:42:05,VALID,916.566,VALID,0,VALID,96.8555,VALID,0,VALID,20.5009,VALID,134,VALID,0,
2013-04-13, 01:43:05,VALID,916.509,VALID,0,VALID,96.8479,VALID,0,VALID,20.4813,VALID,134,VALID,0,
2013-04-13, 01:44:05,VALID,916.488,VALID,0,VALID,96.8326,VALID,0.107441,VALID,20.5009,VALID,134,VALID,0,
2013-04-13, 01:45:05,VALID,916.451,VALID,0,VALID,96.8555,VALID,0,VALID,20.4829,VALID,134,VALID,0,
2013-04-13, 01:46:05,VALID,916.46,VALID,0,VALID,96.8403,VALID,0,VALID,20.4423,VALID,134,VALID,0,
2013-04-13, 01:47:05,VALID,916.466,VALID,0,VALID,96.8403,VALID,0,VALID,20.4423,VALID,134,VALID,0,
2013-04-13, 01:48:05,VALID,916.487,VALID,0,VALID,96.8326,VALID,0.107441,VALID,20.4618,VALID,134,VALID,0,
2013-04-13, 01:49:05,VALID,916.463,VALID,0,VALID,96.8403,VALID,0,VALID,20.4423,VALID,134,VALID,0,
2013-04-13, 01:50:05,VALID,916.455,VALID,0,VALID,96.8403,VALID,0,VALID,20.4439,VALID,134,VALID,0,
2013-04-13, 01:51:05,VALID,916.425,VALID,0,VALID,96.8326,VALID,0,VALID,20.4244,VALID,134,VALID,0,
2013-04-13, 01:52:05,VALID,916.424,VALID,0,VALID,96.825,VALID,0,VALID,20.4049,VALID,134,VALID,0,
2013-04-13, 01:53:04,VALID,916.421,VALID,0,VALID,96.8174,VALID,0,VALID,20.3643,VALID,134,VALID,0,
2013-04-13, 01:54:04,VALID,916.435,VALID,0,VALID,96.7716,VALID,0,VALID,20.2863,VALID,134,VALID,0,
2013-04-13, 01:55:04,VALID,916.362,VALID,0,VALID,96.764,VALID,0,VALID,20.2278,VALID,114,VALID,0,
2013-04-13, 01:56:04,VALID,916.309,VALID,0,VALID,96.7564,VALID,0,VALID,20.2278,VALID,114,VALID,0,
2013-04-13, 01:57:04,VALID,916.299,VALID,0,VALID,96.7335,VALID,0,VALID,20.2098,VALID,80,VALID,0,
2013-04-13, 01:58:04,VALID,916.303,VALID,0,VALID,96.7411,VALID,0,VALID,20.1693,VALID,81,VALID,0,
2013-04-13, 01:59:04,VALID,916.303,VALID,0,VALID,96.7335,VALID,0,VALID,20.1498,VALID,88,VALID,0,
2013-04-13, 02:00:04,VALID,916.306,VALID,0,VALID,96.7564,VALID,0,VALID,20.1708,VALID,92,VALID,0,
2013-04-13, 02:01:04,VALID,916.299,VALID,0,VALID,96.7488,VALID,0,VALID,20.1513,VALID,93,VALID,0,
2013-04-13, 02:02:04,VALID,916.283,VALID,0,VALID,96.7488,VALID,0,VALID,20.1513,VALID,102,VALID,0,
2013-04-13, 02:03:04,VALID,916.276,VALID,0,VALID,96.7259,VALID,0,VALID,20.1303,VALID,109,VALID,0,
2013-04-13, 02:04:04,VALID,916.243,VALID,0,VALID,96.7183,VALID,0,VALID,20.1513,VALID,109,VALID,0,
2013-04-13, 02:05:04,VALID,916.215,VALID,0,VALID,96.6878,VALID,0,VALID,20.1303,VALID,109,VALID,0,
2013-04-13, 02:06:04,VALID,916.186,VALID,0,VALID,96.6725,VALID,0,VALID,20.1513,VALID,109,VALID,0,
2013-04-13, 02:07:04,VALID,916.15,VALID,0,VALID,96.642,VALID,0,VALID,20.1318,VALID,109,VALID,0,
2013-04-13, 02:08:04,VALID,916.145,VALID,0,VALID,96.5963,VALID,0,VALID,20.1123,VALID,110,VALID,0,
2013-04-13, 02:09:04,VALID,916.124,VALID,0,VALID,96.5887,VALID,0,VALID,20.0718,VALID,109,VALID,0,
2013-04-13, 02:10:04,VALID,916.102,VALID,0,VALID,96.5506,VALID,0,VALID,20.0928,VALID,111,VALID,0,
2013-04-13, 02:11:04,VALID,916.161,VALID,0,VALID,96.5124,VALID,0,VALID,20.0733,VALID,110,VALID,0,
2013-04-13, 02:12:04,VALID,916.177,VALID,0,VALID,96.4896,VALID,0,VALID,20.0733,VALID,111,VALID,0,
2013-04-13, 02:13:04,VALID,916.134,VALID,0,VALID,96.4438,VALID,0,VALID,20.0538,VALID,112,VALID,0,
2013-04-13, 02:14:04,VALID,916.128,VALID,0,VALID,96.4667,VALID,0,VALID,20.0133,VALID,119,VALID,0,
2013-04-13, 02:15:04,VALID,916.137,VALID,0,VALID,96.4057,VALID,0,VALID,20.0148,VALID,114,VALID,0,
2013-04-13, 02:16:04,VALID,916.153,VALID,0,VALID,96.3981,VALID,0,VALID,20.0148,VALID,116,VALID,0,
2013-04-13, 02:17:04,VALID,916.149,VALID,0,VALID,96.4057,VALID,0,VALID,19.9953,VALID,119,VALID,0,
2013-04-13, 02:18:04,VALID,916.144,VALID,0,VALID,96.3981,VALID,0,VALID,19.9758,VALID,124,VALID,0,
2013-04-13, 02:19:04,VALID,916.154,VALID,0,VALID,96.3905,VALID,0,VALID,19.9353,VALID,136,VALID,0,
2013-04-13, 02:20:04,VALID,916.169,VALID,0,VALID,96.4133,VALID,0,VALID,19.9368,VALID,135,VALID,0,
2013-04-13, 02:21:04,VALID,916.178,VALID,0,VALID,96.4591,VALID,0,VALID,19.9368,VALID,139,VALID,0,
2013-04-13, 02:22:04,VALID,916.17,VALID,0,VALID,96.4819,VALID,0,VALID,19.9173,VALID,127,VALID,0,
2013-04-13, 02:23:04,VALID,916.178,VALID,0,VALID,96.4667,VALID,0,VALID,19.8978,VALID,140,VALID,0,
2013-04-13, 02:24:04,VALID,916.176,VALID,0,VALID,96.4743,VALID,0,VALID,19.8588,VALID,125,VALID,0,
2013-04-13, 02:25:04,VALID,916.173,VALID,0,VALID,96.4896,VALID,0,VALID,19.8588,VALID,123,VALID,0,
2013-04-13, 02:26:04,VALID,916.16,VALID,0,VALID,96.5124,VALID,0,VALID,19.8393,VALID,123,VALID,0,
2013-04-13, 02:27:04,VALID,916.096,VALID,0,VALID,96.5048,VALID,0,VALID,19.8393,VALID,123,VALID,0,
2013-04-13, 02:28:04,VALID,916.123,VALID,0,VALID,96.5353,VALID,0,VALID,19.8588,VALID,114,VALID,0,
2013-04-13, 02:29:04,VALID,916.115,VALID,0,VALID,96.5582,VALID,0,VALID,19.8588,VALID,118,VALID,0,
2013-04-13, 02:30:04,VALID,916.096,VALID,0,VALID,96.5658,VALID,0,VALID,19.8978,VALID,118,VALID,0,
2013-04-13, 02:31:04,VALID,916.105,VALID,0,VALID,96.5887,VALID,0,VALID,19.8588,VALID,118,VALID,0,
2013-04-13, 02:32:04,VALID,916.066,VALID,0,VALID,96.6268,VALID,0,VALID,19.8783,VALID,123,VALID,0,
2013-04-13, 02:33:04,VALID,915.991,VALID,0,VALID,96.6268,VALID,0,VALID,19.8393,VALID,100,VALID,0,
2013-04-13, 02:34:04,VALID,915.973,VALID,0,VALID,96.6497,VALID,0,VALID,19.8393,VALID,100,VALID,0,
2013-04-13, 02:35:04,VALID,915.952,VALID,0,VALID,96.6497,VALID,0,VALID,19.8003,VALID,107,VALID,0,
2013-04-13, 02:36:04,VALID,915.936,VALID,0,VALID,96.6573,VALID,0,VALID,19.7613,VALID,107,VALID,0,
2013-04-13, 02:37:04,VALID,915.939,VALID,0,VALID,96.6802,VALID,0,VALID,19.7418,VALID,100,VALID,0,
2013-04-13, 02:38:04,VALID,915.953,VALID,0,VALID,96.7107,VALID,0,VALID,19.7418,VALID,88,VALID,0,
2013-04-13, 02:39:04,VALID,915.98,VALID,0,VALID,96.7183,VALID,0,VALID,19.7223,VALID,88,VALID,0,
2013-04-13, 02:40:04,VALID,915.986,VALID,0,VALID,96.7259,VALID,0,VALID,19.7028,VALID,89,VALID,0,
2013-04-13, 02:41:04,VALID,915.96,VALID,0,VALID,96.7335,VALID,0,VALID,19.6638,VALID,83,VALID,0,
2013-04-13, 02:42:04,VALID,915.909,VALID,0,VALID,96.7716,VALID,0,VALID,19.6443,VALID,83,VALID,0,
2013-04-13, 02:43:04,VALID,915.911,VALID,0,VALID,96.7564,VALID,0,VALID,19.6248,VALID,90,VALID,0,
2013-04-13, 02:44:04,VALID,915.866,VALID,0,VALID,96.8021,VALID,0,VALID,19.6053,VALID,99,VALID,0,
2013-04-13, 02:45:04,VALID,915.87,VALID,0,VALID,96.825,VALID,0,VALID,19.6053,VALID,91,VALID,0,
2013-04-13, 02:46:04,VALID,915.858,VALID,0,VALID,96.825,VALID,0,VALID,19.5663,VALID,103,VALID,0,
2013-04-13, 02:47:04,VALID,915.831,VALID,0,VALID,96.8403,VALID,0,VALID,19.5663,VALID,80,VALID,0,
2013-04-13, 02:48:04,VALID,915.798,VALID,0,VALID,96.8631,VALID,0,VALID,19.5678,VALID,91,VALID,0,
2013-04-13, 02:49:04,VALID,915.819,VALID,0,VALID,96.8707,VALID,0,VALID,19.5468,VALID,113,VALID,0,
2013-04-13, 02:50:04,VALID,915.814,VALID,0,VALID,96.8707,VALID,0,VALID,19.5468,VALID,108,VALID,0,
2013-04-13, 02:51:04,VALID,915.797,VALID,0,VALID,96.8936,VALID,0,VALID,19.5858,VALID,115,VALID,0,
2013-04-13, 02:52:04,VALID,915.785,VALID,0,VALID,96.9241,VALID,0,VALID,19.5663,VALID,113,VALID,0,
2013-04-13, 02:53:04,VALID,915.738,VALID,0,VALID,96.9241,VALID,0,VALID,19.6053,VALID,120,VALID,0,
2013-04-13, 02:54:04,VALID,915.743,VALID,0,VALID,96.947,VALID,0,VALID,19.6248,VALID,116,VALID,0,
2013-04-13, 02:55:04,VALID,915.745,VALID,0,VALID,96.9317,VALID,0,VALID,19.5858,VALID,120,VALID,0,
2013-04-13, 02:56:04,VALID,915.707,VALID,0,VALID,96.9317,VALID,0,VALID,19.5858,VALID,126,VALID,0,
2013-04-13, 02:57:04,VALID,915.725,VALID,0,VALID,96.9394,VALID,0,VALID,19.5678,VALID,110,VALID,0,
2013-04-13, 02:58:04,VALID,915.712,VALID,0,VALID,96.9165,VALID,0,VALID,19.5483,VALID,94,VALID,0,
2013-04-13, 02:59:04,VALID,915.725,VALID,0,VALID,96.9317,VALID,0,VALID,19.4898,VALID,89,VALID,0,
2013-04-13, 03:00:04,VALID,915.691,VALID,0,VALID,96.9317,VALID,0,VALID,19.4493,VALID,88,VALID,0,
2013-04-13, 03:01:04,VALID,915.683,VALID,0,VALID,96.9241,VALID,0,VALID,19.4313,VALID,89,VALID,0,
2013-04-13, 03:02:04,VALID,915.657,VALID,0,VALID,96.9317,VALID,0,VALID,19.4118,VALID,89,VALID,0,
2013-04-13, 03:03:04,VALID,915.647,VALID,0,VALID,96.9317,VALID,0,VALID,19.3728,VALID,89,VALID,0,
2013-04-13, 03:04:04,VALID,915.657,VALID,0,VALID,96.947,VALID,0,VALID,19.3923,VALID,89,VALID,0,
2013-04-13, 03:05:04,VALID,915.679,VALID,0,VALID,96.947,VALID,0,VALID,19.3713,VALID,89,VALID,0,
2013-04-13, 03:06:04,VALID,915.662,VALID,0,VALID,96.9775,VALID,0,VALID,19.4103,VALID,89,VALID,0,
2013-04-13, 03:07:04,VALID,915.668,VALID,0,VALID,96.9851,VALID,0,VALID,19.4703,VALID,89,VALID,0,
2013-04-13, 03:08:04,VALID,915.706,VALID,0,VALID,97.008,VALID,0,VALID,19.4898,VALID,97,VALID,0,
2013-04-13, 03:09:04,VALID,915.682,VALID,0,VALID,97.0156,VALID,0,VALID,19.4688,VALID,122,VALID,0,
2013-04-13, 03:10:04,VALID,915.655,VALID,0,VALID,97.008,VALID,0,VALID,19.5078,VALID,130,VALID,0,
2013-04-13, 03:11:04,VALID,915.609,VALID,0,VALID,97.0003,VALID,0,VALID,19.5078,VALID,134,VALID,0,
2013-04-13, 03:12:04,VALID,915.64,VALID,0,VALID,96.9927,VALID,0,VALID,19.5273,VALID,136,VALID,0,
2013-04-13, 03:13:04,VALID,915.614,VALID,0,VALID,97.0003,VALID,0,VALID,19.5273,VALID,135,VALID,0,
2013-04-13, 03:14:04,VALID,915.566,VALID,0,VALID,96.9698,VALID,0,VALID,19.5078,VALID,145,VALID,0,
2013-04-13, 03:15:04,VALID,915.568,VALID,0,VALID,96.9317,VALID,0,VALID,19.4688,VALID,133,VALID,0,
2013-04-13, 03:16:04,VALID,915.579,VALID,0,VALID,96.9012,VALID,0,VALID,19.4688,VALID,135,VALID,0,
2013-04-13, 03:17:04,VALID,915.596,VALID,0,VALID,96.8555,VALID,0,VALID,19.4493,VALID,138,VALID,0,
2013-04-13, 03:18:04,VALID,915.589,VALID,0,VALID,96.8174,VALID,0,VALID,19.5093,VALID,157,VALID,0,
2013-04-13, 03:19:04,VALID,915.599,VALID,0,VALID,96.8098,VALID,0,VALID,19.4898,VALID,157,VALID,0,
2013-04-13, 03:20:04,VALID,915.583,VALID,0,VALID,96.764,VALID,0,VALID,19.4493,VALID,157,VALID,0,
2013-04-13, 03:21:04,VALID,915.584,VALID,0,VALID,96.6802,VALID,0,VALID,19.4313,VALID,157,VALID,0,
2013-04-13, 03:22:04,VALID,915.563,VALID,0,VALID,96.5811,VALID,0,VALID,19.4118,VALID,154,VALID,0,
2013-04-13, 03:23:04,VALID,915.607,VALID,0,VALID,96.5353,VALID,0,VALID,19.3713,VALID,117,VALID,0,
2013-04-13, 03:24:04,VALID,915.639,VALID,0,VALID,96.4972,VALID,0,VALID,19.3533,VALID,117,VALID,0,
2013-04-13, 03:25:04,VALID,915.661,VALID,0,VALID,96.4819,VALID,0,VALID,19.3323,VALID,117,VALID,0,
2013-04-13, 03:26:04,VALID,915.68,VALID,0,VALID,96.4591,VALID,0,VALID,19.3533,VALID,117,VALID,0,
2013-04-13, 03:27:04,VALID,915.673,VALID,0,VALID,96.4362,VALID,0,VALID,19.3128,VALID,117,VALID,0,
2013-04-13, 03:28:04,VALID,915.654,VALID,0,VALID,96.4057,VALID,0,VALID,19.2738,VALID,117,VALID,0,
2013-04-13, 03:29:04,VALID,915.662,VALID,0,VALID,96.3676,VALID,0,VALID,19.2543,VALID,117,VALID,0,
2013-04-13, 03:30:04,VALID,915.649,VALID,0,VALID,96.36,VALID,0,VALID,19.2153,VALID,117,VALID,0,
2013-04-13, 03:31:04,VALID,915.684,VALID,0,VALID,96.3829,VALID,0,VALID,19.2348,VALID,117,VALID,0,
2013-04-13, 03:32:04,VALID,915.69,VALID,0,VALID,96.4133,VALID,0,VALID,19.2753,VALID,117,VALID,0,
2013-04-13, 03:33:04,VALID,915.679,VALID,0,VALID,96.4286,VALID,0,VALID,19.2738,VALID,117,VALID,0,
2013-04-13, 03:34:04,VALID,915.667,VALID,0,VALID,96.4057,VALID,0,VALID,19.3143,VALID,117,VALID,0,
2013-04-13, 03:35:04,VALID,915.68,VALID,0,VALID,96.3524,VALID,0.107441,VALID,19.2933,VALID,117,VALID,0,
2013-04-13, 03:36:04,VALID,915.653,VALID,0,VALID,96.299,VALID,0,VALID,19.2948,VALID,117,VALID,0,
2013-04-13, 03:37:04,VALID,915.646,VALID,0,VALID,96.2304,VALID,0,VALID,19.2948,VALID,117,VALID,0,
2013-04-13, 03:38:04,VALID,915.638,VALID,0,VALID,96.0932,VALID,0,VALID,19.2348,VALID,117,VALID,0,
2013-04-13, 03:39:04,VALID,915.584,VALID,0,VALID,96.0017,VALID,0,VALID,19.2348,VALID,117,VALID,0,
2013-04-13, 03:40:04,VALID,915.546,VALID,0,VALID,95.9483,VALID,0,VALID,19.2543,VALID,117,VALID,0,
2013-04-13, 03:41:04,VALID,915.539,VALID,0,VALID,95.8416,VALID,0,VALID,19.2543,VALID,117,VALID,0,
2013-04-13, 03:42:04,VALID,915.568,VALID,0,VALID,95.7882,VALID,0,VALID,19.2753,VALID,117,VALID,0,
2013-04-13, 03:43:04,VALID,915.577,VALID,0,VALID,95.7196,VALID,0,VALID,19.2933,VALID,117,VALID,0,
2013-04-13, 03:44:04,VALID,915.609,VALID,0,VALID,95.6739,VALID,0,VALID,19.3533,VALID,117,VALID,0,
2013-04-13, 03:45:04,VALID,915.652,VALID,0,VALID,95.4985,VALID,0,VALID,19.4118,VALID,117,VALID,0,
2013-04-13, 03:46:04,VALID,915.657,VALID,0,VALID,95.125,VALID,0,VALID,19.4298,VALID,134,VALID,0,
2013-04-13, 03:47:04,VALID,915.617,VALID,0,VALID,94.9115,VALID,0,VALID,19.4508,VALID,134,VALID,0,
2013-04-13, 03:48:04,VALID,915.582,VALID,0,VALID,94.7057,VALID,0,VALID,19.4118,VALID,134,VALID,0,
2013-04-13, 03:49:04,VALID,915.55,VALID,0,VALID,94.7514,VALID,0,VALID,19.3908,VALID,130,VALID,0,
2013-04-13, 03:50:04,VALID,915.56,VALID,0,VALID,94.7057,VALID,0,VALID,19.3728,VALID,123,VALID,0,
2013-04-13, 03:51:04,VALID,915.565,VALID,0,VALID,94.7743,VALID,0,VALID,19.3323,VALID,123,VALID,0,
2013-04-13, 03:52:04,VALID,915.537,VALID,0,VALID,94.9115,VALID,0,VALID,19.3533,VALID,118,VALID,0,
2013-04-13, 03:53:04,VALID,915.565,VALID,0,VALID,94.9725,VALID,0,VALID,19.3728,VALID,118,VALID,0,
2013-04-13, 03:54:04,VALID,915.546,VALID,0,VALID,94.9268,VALID,0,VALID,19.4313,VALID,121,VALID,0,
2013-04-13, 03:55:04,VALID,915.606,VALID,0,VALID,94.6523,VALID,0,VALID,19.4118,VALID,135,VALID,0,
2013-04-13, 03:56:04,VALID,915.657,VALID,0,VALID,94.6295,VALID,0,VALID,19.3923,VALID,169,VALID,0,
2013-04-13, 03:57:04,VALID,915.653,VALID,0,VALID,94.8505,VALID,0,VALID,19.3923,VALID,159,VALID,0,